English version Home page |
Updated on June 28, 2003 |
プロフィール
|
軌道要素T 2002 Dec. 21.5847 TT MPC q 2.089543 (2000.0) P Q z +0.021498 Peri. 314.6471 +0.1892702 -0.6660553 Node 250.0709 -0.5315938 -0.6872842 e 0.955078 Incl. 129.8747 -0.8255815 +0.2898461 >From 49 observations 2003 May 23-June 20.
|
星図
|
光度変化m1 = 13.0 + 5 logΔ + 10.0 log r
|
軌道要素はM.P.E.C. 2003-M24に掲載されたものです。
|